Погода во Фролищах

Россия / Нижегородская область     56°25′23″N   42°39′09″E
темп.,
°C
ветер,
м/с
пор.,
м/с
влажн.,
%
обл.,
%
осадки,
мм/ч
давл.,
гПа
погр.,
м
8 мая, сб
сб800:00+5ююв23765 0.0 101642
03:00+4ююв238138 0.0 101651
06:00+6юв378018 0.0 1016188
09:00+12ююв47565 0.0 1015640
12:00+15ююв5744100 0.0 10141998
15:00+14юв5850100 0.0 10121900
18:00+13юв51158100 0.0 10101188
21:00+11юв51379100 0.0 1008674
9 мая, вс
вс900:00+11ююв51386100 0.3 1005779
03:00+10ююв51391100 0.9 1004796
06:00+10ююв51194100 0.3 1005601
09:00+10ю4996100 1.4 1006578
12:00+10ю3895100 1.0 1007444
15:00+8з4794100 4.8 1010421
18:00+6з4791100 0.6 1013592
21:00+4зсз4997100 0.6 1016756
10 мая, пн
пн1000:00+6сз51089100 0.1 10181012
03:00+3сз3109044 0.1 1022347
06:00+4ссз413840 0.0 1024663
09:00+9с59520 0.0 10261155
12:00+13с57390 0.0 10271542
15:00+14ссв46354 0.0 10281681
18:00+12ссв36480 0.0 1028614
21:00+7ссв23630 0.0 103042
11 мая, вт
вт1100:00+6св24711 0.0 103160
03:00+4всв247732 0.0 103162
06:00+7всв267260 0.0 1032156
09:00+13в36525 0.0 1033773
12:00+17всв45400 0.0 10321163
15:00+18всв45383 0.0 10301188
18:00+16в36520 0.0 1030322
21:00+10в34730 0.0 103055
12 мая, ср
ср1200:00+8в35793 0.0 103088
03:00+7всв38810 0.0 1030125
06:00+10в39730 0.0 1030243
09:00+16в46520 0.0 1030509
12:00+21в45490 0.0 1029977
15:00+22вюв45485 0.0 10271378
18:00+20вюв376079 0.0 1027509
21:00+14в398369 0.0 1027184